Flag for Nepal Weather past 2 weeks in Pokhara, Nepal

Now
72 °F

Broken clouds.


Feels Like: 67 °F
Forecast: 62 / 84 °F
Wind: No wind

Location: Kathmandu Airport

Current Time: Aug 21, 2014 at 8:34:01 AM

Latest Report: Aug 21, 2014 at 7:35 AM


Visibility: 4 mi

Pressure: 29.89 "Hg

Humidity: 94%

Dew point: 70 °F

Location of PokharaLocation

Historic Weather in Pokhara — Graph

°F

Pokhara temperature yesterday

Maximum temperature yesterday: 79 °F (at 1:35 PM)
Minimum temperature yesterday: 70 °F (at 12:35 AM)
Average temperature yesterday: 73 °F

Past Weeks' High & Low Weather Summary

 TemperatureHumidityPressure
High84 °F (Aug 6, 1:35 PM)100% (Aug 8, 12:35 AM)30.04 "Hg (Aug 8, 12:35 AM)
Low66 °F (Aug 16, 5:35 AM)62% (Aug 6, 1:35 PM)29.56 "Hg (Aug 14, 8:35 PM)
Average73 °F86%29.84 "Hg
* Reported Aug 6 7:35 AM — Aug 21 7:35 AM, Pokhara, Weather by CustomWeather, © 2014

Note: Actual official high and low records may vary slightly from our data, if they occured in-between our weather recording intervals... More about our weather records

Advertising

Pokhara weather history for previous 24 hours

 ConditionsComfort  
Time TempWeatherWind HumidityBarometerVisibility
7:35 AM
Aug 21
72 °FBroken clouds.No wind94%29.89 "Hg4 mi
6:35 AM70 °FBroken clouds.No wind94%29.89 "Hg4 mi
5:35 AM70 °FPartly cloudy.No wind94%29.89 "Hg4 mi
4:35 AM70 °FPartly cloudy.No wind94%29.86 "Hg4 mi
3:35 AM70 °FPartly cloudy.No wind94%29.86 "Hg4 mi
2:35 AM70 °FPartly cloudy.No wind94%29.86 "Hg4 mi
1:35 AM70 °FPartly cloudy.No wind94%29.89 "Hg4 mi
12:35 AM70 °FPartly cloudy.No wind100%29.92 "Hg4 mi
11:35 PM
Aug 20
70 °FFog.No wind100%29.92 "Hg3 mi
10:35 PM70 °FFog.No wind100%29.95 "Hg3 mi
9:35 PM70 °FFog.No wind94%29.95 "Hg3 mi
8:35 PM70 °FMostly cloudy.No wind94%29.92 "Hg4 mi
7:35 PM70 °FPartly cloudy.3 mph94%29.92 "Hg4 mi
6:35 PM72 °FLight rain. Broken clouds.6 mph88%29.89 "Hg4 mi
5:35 PM72 °FLight rain. Broken clouds.No wind88%29.89 "Hg4 mi
4:35 PM75 °FRain. Broken clouds.8 mph78%29.86 "Hg4 mi
3:35 PM75 °FRain. Broken clouds.5 mph78%29.89 "Hg4 mi
2:35 PM79 °FRain. Broken clouds.6 mph65%29.89 "Hg4 mi
1:35 PM79 °FThunderstorms. Broken clouds.5 mph65%29.92 "Hg5 mi
12:35 PM77 °FBroken clouds.5 mph74%29.95 "Hg5 mi
10:35 AM75 °FMore clouds than sun.3 mph83%29.98 "Hg4 mi
9:35 AM73 °FMore clouds than sun.2 mph89%29.98 "Hg3 mi
Weather by CustomWeather, © 2014

See weather overviewHow to use our weather pages